"startDT [UTC]","vpos","CH4 [ppm]","stdev(CH4) [ppm]","CO2 [ppm]","stdev(CO2) [ppm]","H2O_reported [%]","stdev(H2O_reported)","CavityPressure [torr]","CavityTemp [C]","OutletValve","CH4_dry [ppm]","CO2_dry [ppm]","DasTemp [C]","EtalonTemp [C]","WarmBoxTemp [C]","MPVPosition","T_ECpre [C]","T_EC1 [C]","T_EC2 [C]","p_inlet [hPa]","p_in [hPa]","p_out [hPa]","T_inlet [C]","RH_inlet [%]","dwpt_inlet [C]","T_vent [C]","RH_vent [%]","dwpt_vent [C]","flow_vent [l min-1]","flow_inlet [l min-1]","dwpt_sample [C]","T_room [C]"
2016-02-09 00:00:00,3.0,1.88111,0.01475,399.311,2.347,0.0139,0.0198,139.979,45.000,31292.89941,1.88292,399.513,34.374,45.070,45.000,0.00,0.08,-272.76,-272.80,-5,492,-939,21.4,2.0,-30.1,21.5,2.0,-29.8,5.73,2.04,-18.7,27.6
2016-02-09 00:01:00,3.0,1.87660,0.00026,397.085,0.062,0.0035,0.0016,139.999,45.000,31281.47038,1.87668,397.105,34.375,45.070,45.000,0.00,0.08,-272.75,-272.81,-5,491,-939,21.4,2.0,-30.1,21.5,2.0,-29.6,5.73,1.92,-18.7,27.6
2016-02-09 00:02:00,3.0,1.87661,0.00035,397.318,0.116,0.0035,0.0022,139.999,45.000,31275.06345,1.87666,397.328,34.374,45.070,45.000,0.00,0.08,-272.76,-272.81,-7,491,-939,21.4,2.0,-30.1,21.5,2.0,-29.6,5.73,1.74,-18.7,27.6
2016-02-09 00:03:00,3.0,1.87636,0.00030,397.529,0.042,0.0035,0.0019,139.997,44.999,31271.24665,1.87644,397.545,34.373,45.070,45.000,0.00,0.08,-272.75,-272.81,-5,491,-939,21.4,2.0,-30.1,21.5,2.0,-29.7,5.73,2.09,-18.7,27.6
2016-02-09 00:04:00,3.0,1.87645,0.00045,397.547,0.025,0.0026,0.0021,139.999,44.996,31266.65765,1.87651,397.559,34.342,45.070,45.000,0.00,0.08,-272.75,-272.82,-5,491,-939,21.4,2.0,-30.1,21.6,2.0,-29.7,5.73,1.78,-18.7,27.6
2016-02-09 00:05:00,3.0,1.87624,0.00039,397.525,0.041,0.0018,0.0015,140.000,44.996,31263.17116,1.87627,397.535,34.350,45.070,45.000,0.00,0.08,-272.76,-272.81,-7,492,-939,21.4,2.0,-30.1,21.6,2.0,-29.7,5.73,1.86,-18.7,27.6
2016-02-09 00:06:00,3.0,1.87611,0.00040,397.520,0.027,0.0016,0.0020,140.000,45.007,31271.79979,1.87614,397.527,34.333,45.069,44.999,0.00,0.08,-272.75,-272.81,-6,492,-939,21.5,2.0,-30.1,21.6,2.0,-29.6,5.73,2.06,-18.7,27.6
2016-02-09 00:07:00,3.0,1.87572,0.00045,397.460,0.048,0.0014,0.0024,139.999,45.032,31302.53282,1.87576,397.468,34.350,45.069,44.999,0.00,0.08,-272.75,-272.81,-5,492,-939,21.5,2.0,-30.1,21.6,2.0,-29.6,5.73,1.70,-18.7,27.6
2016-02-09 00:08:00,3.0,1.87540,0.00037,397.406,0.030,0.0017,0.0018,139.999,45.068,31349.26188,1.87545,397.414,34.348,45.069,44.999,0.00,0.08,-272.77,-272.81,-7,493,-939,21.6,2.0,-29.9,21.6,2.0,-29.5,5.73,2.00,-18.7,27.6
2016-02-09 00:09:00,3.0,1.87523,0.00034,397.372,0.041,0.0000,0.0014,140.000,45.079,31385.48031,1.87523,397.372,34.334,45.070,45.000,0.00,0.08,-272.75,-272.82,-6,493,-939,21.6,2.0,-29.9,21.6,2.1,-29.4,5.73,1.94,-18.7,27.6
2016-02-09 00:10:00,3.0,1.87541,0.00031,397.410,0.043,-0.0003,0.0013,140.000,45.068,31406.18813,1.87539,397.408,34.349,45.071,45.001,0.00,0.08,-272.75,-272.80,-5,493,-939,21.6,2.0,-29.9,21.6,2.1,-29.4,5.73,1.73,-18.7,27.6
2016-02-09 00:11:00,3.0,1.87582,0.00039,397.443,0.034,0.0004,0.0018,140.000,45.044,31420.83996,1.87582,397.445,34.371,45.071,45.001,0.00,0.08,-272.76,-272.81,-6,494,-939,21.6,2.0,-29.8,21.6,2.1,-29.4,5.73,2.09,-18.7,27.6
2016-02-09 00:12:00,3.0,1.87617,0.00031,397.517,0.041,0.0002,0.0019,140.002,45.018,31427.09159,1.87618,397.517,34.365,45.071,45.001,0.00,0.08,-272.75,-272.81,-6,494,-939,21.7,2.0,-29.9,21.7,2.1,-29.4,5.73,1.79,-18.7,27.6
2016-02-09 00:13:00,3.0,1.87651,0.00032,397.566,0.024,-0.0006,0.0016,139.999,44.997,31426.31205,1.87648,397.564,34.363,45.072,45.001,0.00,0.08,-272.76,-272.80,-5,494,-939,21.7,2.0,-29.9,21.7,2.0,-29.5,5.73,1.85,-18.7,27.6
2016-02-09 00:14:00,3.0,1.87667,0.00038,397.570,0.041,0.0010,0.0014,139.996,44.983,31420.62825,1.87669,397.574,34.371,45.071,45.001,0.00,0.08,-272.75,-272.81,-6,495,-939,21.7,2.0,-29.9,21.7,2.0,-29.5,5.73,2.07,-18.7,27.7
2016-02-09 00:15:00,3.0,1.87719,0.00030,397.627,0.037,-0.0002,0.0011,139.998,44.973,31410.46440,1.87717,397.626,34.375,45.071,45.001,0.00,0.08,-272.75,-272.82,-7,495,-939,21.8,2.0,-29.7,21.7,2.1,-29.4,5.73,1.70,-18.7,27.7
2016-02-09 00:16:00,3.0,1.87692,0.00044,397.630,0.035,-0.0001,0.0013,140.000,44.967,31404.32739,1.87693,397.631,34.376,45.071,45.001,0.00,0.08,-272.75,-272.81,-5,495,-939,21.8,2.0,-29.6,21.8,2.1,-29.2,5.73,2.01,-18.7,27.7
2016-02-09 00:17:00,3.0,1.87690,0.00047,397.631,0.022,0.0001,0.0017,139.999,44.965,31393.35853,1.87689,397.630,34.382,45.071,45.001,0.00,0.08,-272.75,-272.81,-6,496,-939,21.8,2.0,-29.6,21.8,2.1,-29.1,5.73,1.92,-18.7,27.7
2016-02-09 00:18:00,3.0,1.87687,0.00028,397.632,0.025,0.0000,0.0012,139.999,44.965,31382.83641,1.87686,397.632,34.385,45.071,45.000,0.00,0.08,-272.76,-272.81,-7,496,-939,21.9,2.0,-29.7,21.8,2.1,-29.3,5.73,1.74,-18.7,27.7
2016-02-09 00:19:00,3.0,1.87671,0.00036,397.619,0.029,-0.0005,0.0016,139.997,44.966,31371.71434,1.87673,397.618,34.410,45.070,45.000,0.00,0.08,-272.75,-272.81,-5,496,-939,21.9,2.0,-29.7,21.8,2.1,-29.3,5.73,2.09,-18.7,27.7
2016-02-09 00:20:00,0.0,1.91598,0.01490,403.748,2.470,0.0498,0.0234,140.009,44.970,31531.60325,1.91536,403.863,34.438,45.070,45.000,0.00,0.08,-272.75,-272.81,-7,521,-939,21.9,2.0,-29.5,21.9,2.1,-29.2,5.73,1.83,-18.7,27.7
2016-02-09 00:21:00,0.0,1.92189,0.00039,404.785,0.033,0.0642,0.0021,139.999,44.974,31541.80578,1.92313,405.097,34.438,45.069,44.999,0.00,0.08,-272.75,-272.81,-8,522,-939,22.0,2.0,-29.5,21.9,2.1,-29.1,5.73,1.79,-18.7,27.7
2016-02-09 00:22:00,0.0,1.92180,0.00030,404.734,0.042,0.0645,0.0018,139.997,44.978,31538.42671,1.92301,405.049,34.419,45.069,44.999,0.00,0.08,-272.76,-272.81,-8,523,-939,22.0,2.0,-29.6,21.9,2.1,-29.1,5.73,2.08,-18.7,27.7
2016-02-09 00:23:00,0.0,1.92145,0.00027,404.716,0.036,0.0657,0.0017,140.001,44.983,31537.37309,1.92270,405.036,34.409,45.069,44.999,0.00,0.08,-272.75,-272.81,-7,523,-939,22.0,2.0,-29.6,21.9,2.1,-29.1,5.73,1.98,-18.7,27.8
2016-02-09 00:24:00,0.0,1.92175,0.00037,404.701,0.039,0.0659,0.0015,140.001,44.987,31532.06718,1.92298,405.023,34.436,45.069,44.999,0.00,0.08,-272.75,-272.81,-7,523,-939,22.0,2.0,-29.4,22.0,2.1,-29.1,5.73,1.74,-18.7,27.8
2016-02-09 00:25:00,0.0,1.92161,0.00036,404.700,0.039,0.0656,0.0020,139.999,44.991,31530.53360,1.92283,405.018,34.438,45.069,44.999,0.00,0.08,-272.76,-272.80,-8,523,-939,22.1,2.0,-29.5,22.0,2.1,-29.1,5.73,1.98,-18.7,27.8
2016-02-09 00:26:00,0.0,1.92146,0.00037,404.716,0.026,0.0652,0.0016,140.002,44.994,31531.65382,1.92273,405.034,34.416,45.069,44.999,0.00,0.08,-272.75,-272.81,-8,523,-939,22.0,2.0,-29.6,22.0,2.1,-29.1,5.73,2.07,-18.7,27.8
2016-02-09 00:27:00,0.0,1.92155,0.00033,404.702,0.021,0.0655,0.0017,139.998,44.997,31526.94762,1.92279,405.021,34.416,45.069,44.999,0.00,0.08,-272.75,-272.81,-7,524,-939,22.1,2.0,-29.6,22.0,2.1,-29.1,5.73,1.78,-18.7,27.8
2016-02-09 00:28:00,0.0,1.92150,0.00047,404.685,0.030,0.0666,0.0015,139.998,44.999,31528.27194,1.92274,405.010,34.430,45.070,45.000,0.00,0.08,-272.75,-272.81,-7,524,-939,22.1,2.0,-29.4,22.0,2.1,-29.0,5.73,1.85,-18.7,27.8
2016-02-09 00:29:00,0.0,1.92167,0.00029,404.697,0.029,0.0667,0.0016,140.002,45.000,31528.55948,1.92296,405.022,34.434,45.070,45.000,0.00,0.08,-272.75,-272.81,-8,524,-939,22.1,2.0,-29.5,22.0,2.1,-28.9,5.73,2.10,-18.7,27.8
2016-02-09 00:30:00,0.0,1.92185,0.00040,404.710,0.036,0.0659,0.0017,140.001,45.000,31527.67798,1.92308,405.030,34.436,45.070,45.000,0.00,0.08,-272.74,-272.81,-8,524,-939,22.0,2.0,-29.5,22.0,2.1,-29.0,5.73,1.89,-18.7,27.8
2016-02-09 00:31:00,0.0,1.92179,0.00035,404.720,0.021,0.0661,0.0012,139.998,45.001,31526.76323,1.92306,405.041,34.432,45.070,45.000,0.00,0.08,-272.75,-272.81,-7,524,-939,22.0,2.0,-29.6,22.0,2.1,-29.1,5.73,1.76,-18.7,27.8
2016-02-09 00:32:00,0.0,1.92202,0.00040,404.716,0.025,0.0661,0.0024,139.998,45.001,31527.64468,1.92324,405.037,34.418,45.070,45.000,0.00,0.08,-272.76,-272.82,-7,524,-939,22.0,2.0,-29.6,22.0,2.1,-29.1,5.73,2.05,-18.7,27.8
2016-02-09 00:33:00,0.0,1.92216,0.00035,404.713,0.032,0.0654,0.0017,140.001,45.001,31526.57245,1.92339,405.033,34.378,45.070,45.000,0.00,0.08,-272.75,-272.81,-7,524,-939,22.0,2.0,-29.6,22.0,2.1,-29.2,5.73,2.01,-18.7,27.8
2016-02-09 00:34:00,0.0,1.92218,0.00036,404.726,0.026,0.0650,0.0018,139.998,45.001,31524.38589,1.92341,405.041,34.375,45.070,45.000,0.00,0.08,-272.75,-272.81,-8,524,-939,22.0,2.0,-29.7,22.0,2.1,-29.2,5.73,1.74,-18.7,27.8
2016-02-09 00:35:00,0.0,1.92186,0.00039,404.732,0.033,0.0661,0.0015,139.997,45.000,31524.50541,1.92310,405.054,34.375,45.071,45.001,0.00,0.08,-272.76,-272.81,-8,524,-939,22.0,2.0,-29.5,22.0,2.1,-29.1,5.73,1.94,-18.7,27.8
2016-02-09 00:36:00,0.0,1.92226,0.00042,404.722,0.028,0.0673,0.0019,140.001,45.000,31525.06700,1.92354,405.049,34.376,45.070,45.000,0.00,0.08,-272.75,-272.81,-7,524,-939,22.0,2.0,-29.4,22.0,2.1,-28.9,5.73,2.09,-18.7,27.8
2016-02-09 00:37:00,0.0,1.92200,0.00031,404.717,0.032,0.0657,0.0017,140.000,45.000,31525.40266,1.92324,405.038,34.374,45.070,45.000,0.00,0.08,-272.75,-272.81,-7,524,-939,22.0,2.0,-29.5,22.0,2.1,-29.0,5.73,1.80,-18.7,27.8
2016-02-09 00:38:00,0.0,1.92222,0.00033,404.733,0.025,0.0651,0.0015,139.997,45.000,31522.88645,1.92344,405.050,34.375,45.070,45.000,0.00,0.08,-272.76,-272.81,-8,524,-939,22.0,2.0,-29.6,22.0,2.1,-29.2,5.73,1.82,-18.7,27.8
2016-02-09 00:39:00,0.0,1.92207,0.00031,404.722,0.031,0.0662,0.0012,140.000,45.000,31523.90030,1.92333,405.044,34.375,45.070,45.000,0.00,0.08,-272.76,-272.81,-8,524,-939,22.0,2.0,-29.6,22.0,2.1,-29.2,5.73,2.10,-18.7,27.8
2016-02-09 00:40:00,0.0,1.92195,0.00036,404.739,0.031,0.0650,0.0022,139.999,45.000,31524.22479,1.92319,405.055,34.374,45.070,45.000,0.00,0.08,-272.75,-272.81,-7,524,-939,22.0,2.0,-29.6,22.0,2.1,-29.2,5.73,1.92,-18.7,27.8
2016-02-09 00:41:00,0.0,1.92190,0.00045,404.735,0.034,0.0648,0.0025,140.001,44.999,31525.10333,1.92312,405.051,34.374,45.070,45.000,0.00,0.08,-272.75,-272.81,-7,524,-939,22.0,2.0,-29.6,22.0,2.1,-29.2,5.73,1.75,-18.7,27.7
2016-02-09 00:42:00,0.0,1.92197,0.00040,404.702,0.022,0.0651,0.0020,139.998,45.000,31524.12643,1.92319,405.019,34.363,45.070,45.000,0.00,0.08,-272.76,-272.81,-8,524,-939,22.0,2.0,-29.7,22.0,2.1,-29.2,5.73,2.03,-18.7,27.8
2016-02-09 00:43:00,0.0,1.92179,0.00024,404.733,0.033,0.0660,0.0014,139.998,45.000,31521.80400,1.92304,405.053,34.357,45.070,45.000,0.00,0.08,-272.75,-272.81,-8,525,-939,22.0,2.0,-29.5,22.0,2.1,-29.2,5.73,2.03,-18.7,27.7
2016-02-09 00:44:00,0.0,1.92182,0.00037,404.711,0.033,0.0670,0.0016,140.000,45.000,31524.31715,1.92311,405.037,34.374,45.070,45.000,0.00,0.08,-272.75,-272.81,-7,525,-939,22.0,2.0,-29.5,22.0,2.1,-29.0,5.73,1.75,-18.7,27.7
2016-02-09 00:45:00,0.0,1.92214,0.00038,404.723,0.037,0.0656,0.0018,139.999,45.000,31522.57158,1.92334,405.043,34.375,45.070,45.000,0.00,0.08,-272.76,-272.81,-7,524,-939,21.9,2.0,-29.6,21.9,2.1,-29.0,5.73,1.92,-18.7,27.8
2016-02-09 00:46:00,0.0,1.92180,0.00040,404.730,0.022,0.0656,0.0018,140.000,45.000,31523.48583,1.92306,405.051,34.375,45.070,45.000,0.00,0.08,-272.75,-272.81,-8,524,-939,21.9,2.0,-29.7,21.9,2.1,-29.2,5.73,2.10,-18.8,27.7
2016-02-09 00:47:00,0.0,1.92202,0.00043,404.706,0.030,0.0657,0.0021,139.999,45.000,31522.44942,1.92326,405.025,34.359,45.070,45.000,0.00,0.08,-272.75,-272.82,-8,524,-939,21.9,2.0,-29.6,21.9,2.1,-29.2,5.73,1.82,-18.8,27.8
2016-02-09 00:48:00,0.0,1.92184,0.00042,404.709,0.044,0.0656,0.0015,139.999,45.000,31522.72108,1.92309,405.027,34.344,45.070,45.000,0.00,0.08,-272.76,-272.81,-7,525,-939,21.9,2.0,-29.6,21.9,2.1,-29.2,5.73,1.81,-18.8,27.7
2016-02-09 00:49:00,0.0,1.92160,0.00032,404.709,0.028,0.0662,0.0021,139.999,45.000,31522.47006,1.92287,405.031,34.323,45.070,45.000,0.00,0.08,-272.76,-272.81,-7,524,-939,21.9,2.0,-29.8,21.9,2.1,-29.2,5.73,2.09,-18.7,27.7
2016-02-09 00:50:00,0.0,1.92169,0.00047,404.713,0.030,0.0663,0.0013,139.997,45.000,31520.73694,1.92289,405.034,34.324,45.070,45.000,0.00,0.08,-272.75,-272.81,-8,524,-939,21.8,2.0,-29.6,21.9,2.1,-29.1,5.73,1.93,-18.8,27.7
2016-02-09 00:51:00,0.0,1.92171,0.00047,404.714,0.039,0.0662,0.0016,139.998,45.000,31520.63629,1.92299,405.039,34.321,45.070,45.000,0.00,0.08,-272.76,-272.81,-8,524,-939,21.8,2.0,-29.6,21.9,2.1,-29.1,5.73,1.74,-18.8,27.7
2016-02-09 00:52:00,0.0,1.92140,0.00041,404.705,0.026,0.0661,0.0018,140.000,45.000,31520.34068,1.92266,405.027,34.313,45.070,45.000,0.00,0.08,-272.77,-272.81,-7,524,-938,21.9,2.0,-29.5,21.9,2.1,-29.1,5.73,2.02,-18.8,27.7
2016-02-09 00:53:00,0.0,1.92152,0.00022,404.719,0.031,0.0681,0.0016,139.999,45.000,31520.46364,1.92282,405.050,34.315,45.070,45.000,0.00,0.08,-272.75,-272.81,-7,524,-939,21.8,2.0,-29.4,21.9,2.1,-29.0,5.73,2.04,-18.8,27.7
2016-02-09 00:54:00,0.0,1.92167,0.00034,404.713,0.028,0.0673,0.0018,139.998,45.000,31521.24462,1.92291,405.040,34.335,45.070,45.000,0.00,0.08,-272.74,-272.81,-8,524,-939,21.8,2.1,-29.3,21.9,2.2,-28.8,5.73,1.76,-18.8,27.7
2016-02-09 00:55:00,0.0,1.92175,0.00038,404.742,0.033,0.0669,0.0015,140.000,45.000,31517.65268,1.92303,405.068,34.358,45.070,45.000,0.00,0.08,-272.76,-272.81,-8,524,-939,21.8,2.0,-29.5,21.9,2.1,-29.0,5.73,1.90,-18.8,27.7
2016-02-09 00:56:00,0.0,1.92178,0.00038,404.745,0.032,0.0659,0.0019,140.000,45.000,31515.95244,1.92302,405.063,34.361,45.070,45.000,0.00,0.08,-272.76,-272.81,-7,524,-939,21.8,2.0,-29.5,21.8,2.1,-29.0,5.73,2.10,-18.8,27.7
2016-02-09 00:57:00,0.0,1.92193,0.00035,404.751,0.030,0.0674,0.0015,140.000,45.000,31516.94938,1.92320,405.081,34.340,45.070,45.000,0.00,0.08,-272.74,-272.80,-7,524,-939,21.7,2.0,-29.4,21.8,2.1,-29.0,5.73,1.83,-18.8,27.7
2016-02-09 00:58:00,0.0,1.92170,0.00031,404.710,0.033,0.0667,0.0025,139.999,45.000,31515.88603,1.92298,405.035,34.317,45.070,45.000,0.00,0.08,-272.76,-272.81,-7,524,-939,21.7,2.0,-29.5,21.8,2.1,-29.0,5.73,1.79,-18.8,27.7
2016-02-09 00:59:00,0.0,1.92163,0.00024,404.719,0.039,0.0679,0.0013,140.001,45.000,31516.17306,1.92293,405.050,34.314,45.070,45.000,0.00,0.08,-272.76,-272.82,-8,524,-938,21.7,2.1,-29.4,21.8,2.1,-29.0,5.73,2.09,-18.8,27.7
2016-02-09 01:00:00,0.0,1.92143,0.00031,404.682,0.034,0.0684,0.0015,139.998,45.000,31516.50931,1.92270,405.016,34.312,45.070,45.000,0.00,0.08,-272.74,-272.81,-7,524,-938,21.7,2.1,-29.3,21.8,2.1,-28.9,5.73,1.95,-18.8,27.7
2016-02-09 01:01:00,0.0,1.92099,0.00049,404.674,0.029,0.0678,0.0015,140.000,45.000,31518.23690,1.92231,405.004,34.313,45.070,45.000,0.00,0.08,-272.75,-272.81,-7,524,-939,21.7,2.1,-29.2,21.8,2.2,-28.9,5.73,1.74,-18.8,27.6
2016-02-09 01:02:00,0.0,1.92118,0.00035,404.694,0.041,0.0689,0.0015,140.000,45.000,31516.84139,1.92245,405.030,34.292,45.070,45.000,0.00,0.08,-272.77,-272.82,-7,524,-939,21.7,2.1,-29.2,21.8,2.2,-28.8,5.73,1.99,-18.8,27.6
2016-02-09 01:03:00,0.0,1.92169,0.00040,404.686,0.032,0.0684,0.0018,139.996,45.000,31516.55516,1.92296,405.020,34.265,45.070,45.000,0.00,0.08,-272.76,-272.81,-8,524,-939,21.6,2.1,-29.3,21.8,2.2,-28.8,5.73,2.07,-18.8,27.6
2016-02-09 01:04:00,0.0,1.92167,0.00044,404.706,0.030,0.0675,0.0017,139.997,45.000,31515.20609,1.92297,405.033,34.266,45.070,45.000,0.00,0.08,-272.75,-272.81,-8,524,-939,21.6,2.1,-29.4,21.8,2.2,-28.9,5.73,1.77,-18.8,27.6
2016-02-09 01:05:00,0.0,1.92156,0.00027,404.701,0.046,0.0674,0.0016,140.001,45.000,31515.46593,1.92283,405.030,34.295,45.070,45.000,0.00,0.08,-272.76,-272.81,-7,524,-939,21.6,2.0,-29.5,21.7,2.1,-29.0,5.73,1.87,-18.8,27.6
2016-02-09 01:06:00,0.0,1.92114,0.00037,404.680,0.031,0.0678,0.0017,139.999,45.000,31516.46657,1.92244,405.010,34.303,45.070,45.000,0.00,0.08,-272.76,-272.81,-7,524,-939,21.6,2.1,-29.3,21.7,2.1,-29.0,5.73,2.10,-18.8,27.6
2016-02-09 01:07:00,0.0,1.92138,0.00042,404.697,0.039,0.0682,0.0017,140.002,45.000,31515.05764,1.92267,405.029,34.290,45.070,45.000,0.00,0.08,-272.74,-272.81,-8,524,-938,21.6,2.1,-29.4,21.7,2.1,-29.0,5.73,1.88,-18.8,27.6
2016-02-09 01:08:00,0.0,1.92115,0.00041,404.668,0.035,0.0684,0.0013,140.000,45.000,31516.78461,1.92246,405.000,34.288,45.070,45.000,0.00,0.08,-272.75,-272.81,-8,524,-938,21.6,2.1,-29.3,21.7,2.2,-28.8,5.73,1.77,-18.8,27.6
2016-02-09 01:09:00,0.0,1.92109,0.00031,404.681,0.040,0.0686,0.0017,139.998,45.000,31515.45306,1.92236,405.015,34.312,45.070,45.000,0.00,0.08,-272.76,-272.81,-7,524,-938,21.6,2.1,-29.3,21.7,2.2,-28.8,5.73,2.06,-18.8,27.6
2016-02-09 01:10:00,0.0,1.92122,0.00031,404.692,0.027,0.0693,0.0017,140.001,45.000,31515.66024,1.92254,405.030,34.312,45.070,45.000,0.00,0.08,-272.75,-272.81,-7,524,-938,21.6,2.1,-29.2,21.7,2.2,-28.7,5.73,2.01,-18.8,27.6
2016-02-09 01:11:00,0.0,1.92122,0.00040,404.668,0.029,0.0703,0.0019,140.000,45.000,31514.12374,1.92255,405.009,34.313,45.070,45.000,0.00,0.08,-272.75,-272.81,-8,524,-938,21.6,2.1,-29.2,21.7,2.2,-28.7,5.73,1.74,-18.8,27.6
2016-02-09 01:12:00,0.0,1.92084,0.00031,404.671,0.039,0.0701,0.0016,140.000,45.000,31514.74358,1.92219,405.013,34.313,45.070,45.000,0.00,0.08,-272.76,-272.81,-8,524,-939,21.5,2.1,-29.1,21.6,2.2,-28.7,5.73,1.95,-18.8,27.6
2016-02-09 01:13:00,0.0,1.92072,0.00035,404.667,0.029,0.0693,0.0018,140.000,45.000,31515.57849,1.92203,405.003,34.313,45.070,45.000,0.00,0.08,-272.75,-272.81,-7,524,-939,21.5,2.2,-29.0,21.7,2.2,-28.6,5.73,2.08,-18.8,27.6
2016-02-09 01:14:00,0.0,1.92095,0.00026,404.665,0.029,0.0692,0.0017,139.999,45.000,31514.06900,1.92224,405.002,34.312,45.070,45.000,0.00,0.08,-272.75,-272.81,-6,523,-939,21.5,2.1,-29.2,21.6,2.2,-28.8,5.73,1.81,-18.8,27.6
2016-02-09 01:15:00,0.0,1.92124,0.00030,404.666,0.027,0.0690,0.0013,140.002,45.000,31512.84697,1.92253,405.002,34.313,45.070,45.000,0.00,0.08,-272.76,-272.81,-7,524,-939,21.5,2.1,-29.2,21.6,2.2,-28.8,5.73,1.82,-18.9,27.6
2016-02-09 01:16:00,0.0,1.92140,0.00038,404.682,0.034,0.0690,0.0019,139.997,45.000,31511.45750,1.92270,405.016,34.313,45.070,45.000,0.00,0.08,-272.76,-272.80,-8,524,-939,21.5,2.1,-29.2,21.6,2.2,-28.7,5.73,2.09,-18.9,27.6
2016-02-09 01:17:00,0.0,1.92143,0.00031,404.700,0.033,0.0674,0.0017,139.998,45.000,31510.99335,1.92271,405.028,34.314,45.070,45.000,0.00,0.08,-272.75,-272.81,-7,524,-939,21.5,2.1,-29.3,21.6,2.2,-28.8,5.73,1.95,-18.9,27.5
2016-02-09 01:18:00,0.0,1.92134,0.00036,404.668,0.037,0.0671,0.0019,139.998,45.000,31510.71114,1.92262,404.996,34.313,45.070,45.000,0.00,0.08,-272.75,-272.81,-6,523,-939,21.5,2.1,-29.4,21.6,2.1,-29.1,5.73,1.75,-18.9,27.5
2016-02-09 01:19:00,0.0,1.92144,0.00041,404.665,0.041,0.0680,0.0015,139.999,45.000,31509.70220,1.92271,404.995,34.307,45.070,45.000,0.00,0.08,-272.76,-272.81,-7,523,-938,21.5,2.1,-29.4,21.6,2.2,-29.0,5.73,1.99,-18.9,27.5
2016-02-09 01:20:00,0.0,1.92131,0.00034,404.683,0.035,0.0680,0.0016,139.997,45.000,31509.27920,1.92262,405.015,34.306,45.070,45.000,0.00,0.08,-272.75,-272.81,-8,523,-939,21.5,2.1,-29.4,21.6,2.2,-28.9,5.73,2.07,-18.9,27.5
2016-02-09 01:21:00,0.0,1.92096,0.00024,404.667,0.038,0.0689,0.0014,139.999,45.000,31509.72458,1.92226,405.001,34.285,45.070,45.000,0.00,0.08,-272.75,-272.81,-7,523,-939,21.4,2.1,-29.3,21.6,2.2,-28.9,5.73,1.79,-18.9,27.5
2016-02-09 01:22:00,0.0,1.92102,0.00035,404.667,0.028,0.0687,0.0021,140.001,45.000,31511.46598,1.92231,405.002,34.259,45.070,45.000,0.00,0.08,-272.76,-272.81,-7,523,-938,21.4,2.1,-29.2,21.6,2.2,-28.8,5.73,1.85,-18.9,27.5
2016-02-09 01:23:00,0.0,1.92120,0.00037,404.687,0.029,0.0693,0.0020,140.000,45.000,31510.95530,1.92251,405.024,34.250,45.070,45.000,0.00,0.08,-272.76,-272.81,-7,523,-939,21.4,2.1,-29.2,21.6,2.2,-28.7,5.73,2.10,-18.9,27.5
2016-02-09 01:24:00,0.0,1.92106,0.00040,404.672,0.028,0.0687,0.0017,140.000,45.000,31510.93865,1.92236,405.007,34.247,45.070,45.000,0.00,0.08,-272.74,-272.81,-7,523,-938,21.4,2.1,-29.2,21.5,2.2,-28.8,5.73,1.93,-18.9,27.5
2016-02-09 01:25:00,0.0,1.92127,0.00039,404.660,0.028,0.0670,0.0015,140.002,45.000,31511.44121,1.92254,404.987,34.250,45.070,45.000,0.00,0.08,-272.75,-272.82,-8,523,-939,21.4,2.1,-29.4,21.5,2.2,-28.9,5.73,1.75,-18.9,27.5
2016-02-09 01:26:00,0.0,1.92100,0.00038,404.667,0.033,0.0673,0.0014,139.997,45.000,31507.98515,1.92229,404.994,34.250,45.070,45.000,0.00,0.08,-272.76,-272.81,-7,523,-939,21.4,2.1,-29.6,21.5,2.2,-29.1,5.73,2.02,-18.9,27.5
2016-02-09 01:27:00,0.0,1.92110,0.00033,404.661,0.033,0.0676,0.0013,139.998,45.000,31508.97050,1.92237,404.991,34.250,45.070,45.000,0.00,0.08,-272.75,-272.81,-6,523,-939,21.4,2.1,-29.4,21.5,2.1,-29.1,5.73,2.05,-18.9,27.5
2016-02-09 01:28:00,0.0,1.92130,0.00032,404.684,0.040,0.0674,0.0015,140.000,45.000,31507.53839,1.92258,405.012,34.250,45.070,45.000,0.00,0.08,-272.75,-272.81,-7,523,-939,21.4,2.1,-29.3,21.5,2.2,-28.9,5.73,1.78,-18.9,27.5
2016-02-09 01:29:00,0.0,1.92104,0.00043,404.645,0.021,0.0666,0.0017,139.999,45.000,31507.38922,1.92229,404.970,34.250,45.070,45.000,0.00,0.08,-272.76,-272.82,-8,523,-938,21.3,2.1,-29.5,21.5,2.2,-29.0,5.73,1.88,-18.9,27.5
2016-02-09 01:30:00,0.0,1.92135,0.00041,404.696,0.030,0.0682,0.0017,139.999,45.000,31506.29265,1.92262,405.027,34.249,45.070,45.000,0.00,0.08,-272.76,-272.81,-7,523,-938,21.3,2.1,-29.5,21.5,2.1,-29.1,5.73,2.10,-18.9,27.4
2016-02-09 01:31:00,0.0,1.92135,0.00039,404.682,0.037,0.0677,0.0011,139.998,45.000,31505.89214,1.92265,405.011,34.251,45.070,45.000,0.00,0.08,-272.75,-272.81,-6,523,-938,21.3,2.1,-29.4,21.5,2.2,-29.0,5.73,1.89,-18.9,27.4
2016-02-09 01:32:00,0.0,1.92114,0.00047,404.655,0.029,0.0678,0.0016,139.999,45.000,31506.93517,1.92240,404.986,34.253,45.070,45.000,0.00,0.08,-272.75,-272.81,-7,523,-938,21.3,2.1,-29.3,21.5,2.2,-28.9,5.73,1.76,-18.9,27.4
2016-02-09 01:33:00,0.0,1.92113,0.00029,404.656,0.036,0.0683,0.0013,140.002,45.000,31508.85026,1.92245,404.988,34.251,45.070,45.000,0.00,0.08,-272.76,-272.81,-8,523,-939,21.3,2.1,-29.4,21.5,2.2,-29.0,5.73,2.05,-18.9,27.4
2016-02-09 01:34:00,0.0,1.92116,0.00037,404.663,0.035,0.0674,0.0020,139.999,45.000,31505.09598,1.92244,404.991,34.249,45.070,45.000,0.00,0.08,-272.75,-272.80,-7,522,-938,21.3,2.1,-29.5,21.5,2.2,-29.0,5.73,2.02,-18.9,27.4
2016-02-09 01:35:00,0.0,1.92141,0.00036,404.668,0.031,0.0675,0.0015,139.998,45.000,31501.84178,1.92265,404.996,34.250,45.070,45.000,0.00,0.08,-272.75,-272.81,-6,523,-938,21.3,2.1,-29.4,21.5,2.2,-29.0,5.73,1.76,-18.9,27.4
2016-02-09 01:36:00,0.0,1.92141,0.00035,404.668,0.027,0.0678,0.0018,139.996,45.000,31499.82127,1.92270,404.998,34.250,45.070,45.000,0.00,0.08,-272.76,-272.81,-7,522,-938,21.3,2.1,-29.4,21.4,2.2,-29.0,5.73,1.91,-18.9,27.4
2016-02-09 01:37:00,0.0,1.92102,0.00042,404.670,0.031,0.0685,0.0018,139.998,45.000,31502.14079,1.92235,405.004,34.251,45.070,45.000,0.00,0.08,-272.76,-272.81,-7,523,-940,21.3,2.1,-29.3,21.4,2.2,-28.8,5.73,2.10,-18.9,27.4
2016-02-09 01:38:00,0.0,1.92117,0.00042,404.676,0.030,0.0670,0.0018,139.998,45.000,31501.92724,1.92242,405.002,34.250,45.070,45.000,0.00,0.08,-272.75,-272.81,-6,522,-939,21.3,2.1,-29.5,21.5,2.2,-29.0,5.73,1.86,-18.9,27.4
2016-02-09 01:39:00,0.0,1.92115,0.00027,404.679,0.037,0.0686,0.0020,140.000,45.000,31501.81321,1.92245,405.011,34.249,45.070,45.000,0.00,0.08,-272.75,-272.82,-7,524,-938,21.3,2.1,-29.3,21.4,2.2,-29.0,5.73,1.79,-18.9,27.4
2016-02-09 01:40:00,0.0,1.92100,0.00050,404.682,0.032,0.0691,0.0015,140.000,45.000,31501.42817,1.92229,405.020,34.248,45.070,45.000,0.00,0.08,-272.76,-272.81,-5,523,-935,21.2,2.1,-29.3,21.4,2.2,-28.9,5.73,2.08,-18.9,27.4
2016-02-09 01:41:00,0.0,1.92095,0.00043,404.657,0.041,0.0673,0.0016,139.998,45.000,31503.15213,1.92224,404.985,34.233,45.070,45.000,0.00,0.08,-272.75,-272.81,-7,523,-939,21.3,2.1,-29.3,21.4,2.2,-28.9,5.73,1.99,-18.9,27.4
2016-02-09 01:42:00,0.0,1.92110,0.00049,404.677,0.029,0.0690,0.0017,139.996,45.000,31500.67910,1.92241,405.011,34.229,45.070,45.000,0.00,0.08,-272.76,-272.81,-8,522,-940,21.2,2.1,-29.4,21.4,2.2,-28.9,5.73,1.75,-17.9,27.4
2016-02-09 01:43:00,0.0,1.92119,0.00033,404.677,0.037,0.0679,0.0012,140.000,45.000,31500.89164,1.92246,405.008,34.245,45.070,45.000,0.00,0.08,-272.76,-272.81,-7,523,-938,21.2,2.2,-29.2,21.4,2.2,-28.9,5.73,1.95,-17.9,27.4
2016-02-09 01:44:00,0.0,1.92107,0.00035,404.669,0.032,0.0682,0.0013,140.000,45.000,31501.19379,1.92236,405.002,34.248,45.070,45.000,0.00,0.08,-272.76,-272.81,-6,523,-938,21.2,2.1,-29.3,21.4,2.2,-28.9,5.73,2.09,-18.0,27.4
2016-02-09 01:45:00,0.0,1.92108,0.00032,404.668,0.035,0.0693,0.0020,139.998,45.000,31500.24792,1.92237,405.005,34.249,45.070,45.000,0.00,0.08,-272.75,-272.81,-7,523,-939,21.2,2.2,-29.2,21.4,2.2,-28.8,5.73,1.83,-18.1,27.3